This demonstration page uses our WeatherBlox Daily Observations layout. Learn more.

Left ArrowRight Arrow

Hourly Observations for July 13, 2022

Temp ( °F °C ) Dew Point ( °F °C ) Humidity (%) Winds ( mph kmh ) Pressure ( in mb ) Visibility ( mi km ) Precip ( " mm )
12:59 am 00:59 Partly Cloudy 81 27.2 72 22.2 74 74 SSW 9 15 29.89 1012 10 16 0.00 0.00
1:59 am 01:59 Partly Cloudy 79 26.1 72 22.2 79 79 SW 8 13 29.91 1013 10 16 0.00 0.00
2:59 am 02:59 Mostly Cloudy 79 26.1 72 22.2 79 79 SSW 9 15 29.90 1013 10 16 0.00 0.00
3:59 am 03:59 Partly Cloudy 79 26.1 72 22.2 79 79 SSW 12 19 29.89 1012 10 16 0.00 0.00
4:59 am 04:59 Partly Cloudy 77 25 72 22.2 85 85 SW 12 19 29.88 1012 10 16 0.00 0.00
5:59 am 05:59 Partly Cloudy 77 25 72 22.2 85 85 SW 9 15 29.89 1012 9 14 0.00 0.00
6:59 am 06:59 Partly Cloudy 75 23.9 73 22.8 94 94 WSW 7 11 29.92 1013 9 14 0.00 0.00
7:59 am 07:59 Mostly Sunny 79 26.1 73 22.8 82 82 W 8 13 29.94 1014 9 14 0.00 0.00
8:59 am 08:59 Mostly Sunny 82 27.8 73 22.8 74 74 W 8 13 29.95 1014 9 14 0.00 0.00
9:59 am 09:59 Mostly Sunny 84 28.9 73 22.8 70 70 W 7 11 29.96 1015 10 16 0.00 0.00
10:59 am 10:59 Partly Cloudy 84 28.9 71 21.7 65 65 WNW 8 13 29.97 1015 10 16 0.00 0.00
11:59 am 11:59 Partly Cloudy 86 30 71 21.7 61 61 Calm 29.96 1015 10 16 0.00 0.00
12:59 pm 12:59 Mostly Cloudy 88 31.1 69 20.6 54 54 NNW 8 13 29.97 1015 10 16 0.00 0.00
1:59 pm 13:59 Mostly Cloudy 88 31.1 69 20.6 54 54 NNE 7 11 29.95 1014 10 16 0.00 0.00
2:59 pm 14:59 Cloudy with Thunderstorms 86 30 68 20 55 55 E 8 13 29.94 1014 10 16 0.00 0.00
3:30 pm 15:30 Cloudy with Thunderstorms 86 30 68 20 55 55 SSE 16 26 29.98 1015 2 3 0.09 2.29
3:38 pm 15:38 Cloudy with Strong Thunderstorms 86 30 68 20 55 55 SE 15 24 29.98 1015 1 2 0.23 5.84
3:59 pm 15:59 Cloudy with Thunderstorms 75 23.9 68 20 79 79 SE 10 17 29.96 1014 2 3 0.41 10.41
4:02 pm 16:02 Cloudy with Thunderstorms 75 23.9 68 20 79 79 SSE 9 15 29.96 1015 5 8 0.01 0.25
4:23 pm 16:23 Mostly Cloudy with Light Rain 81 27.2 68 20 65 65 S 3 6 29.95 1014 7 11 0.02 0.51
4:59 pm 16:59 Mostly Cloudy 81 27.2 68 20 65 65 S 3 6 29.93 1014 10 16 0.02 0.51
5:59 pm 17:59 Mostly Cloudy 77 25 73 22.8 88 88 SW 7 11 29.93 1014 10 16 0.00 0.00
6:59 pm 18:59 Mostly Cloudy 79 26.1 72 22.2 79 79 SSW 7 11 29.94 1014 10 16 0.00 0.00
7:59 pm 19:59 Mostly Cloudy 77 25 73 22.8 88 88 SSW 7 11 29.96 1015 10 16 0.00 0.00
8:59 pm 20:59 Mostly Cloudy 77 25 73 22.8 88 88 Calm 29.96 1014 10 16 0.00 0.00
9:59 pm 21:59 Mostly Cloudy 75 23.9 71 21.7 88 88 S 5 7 29.96 1014 10 16 0.00 0.00
10:59 pm 22:59 Mostly Cloudy 74 23.3 72 22.2 94 94 SSW 5 7 29.96 1015 10 16 0.00 0.00
11:59 pm 23:59 Mostly Cloudy 74 23.3 71 21.7 91 91 S 9 15 29.96 1014 10 16 0.00 0.00

Powered by AerisWeather